Terminal Aerodrome Forecast
Issued by NWS Amarillo, TX

Home | Current Version | Previous Version | Text Only | Print | Product List | Glossary On
Versions: 1 2 3 4 5 6 7 8 9 10 11 12 13 14 15 16 17 18 19 20 21 22 23 24 25 26 27 28 29 30
000
FTUS44 KAMA 190600 AAA
TAFAMA
TAF AMD
KAMA 190639Z 1907/2006 11007KT P6SM OVC004
     FM190800 16006KT 2SM BR OVC004
     FM191700 19005KT P6SM OVC012=

USA.gov is the U.S. government's official web portal to all federal, state and local government web resources and services.